[[{"header":{"parameterUnit":"m.s-1","parameterCategory":1,"la1":30.2991,"la2":30.254,"lo1":-89.0895,"lo2":-89.0444,"dy":0.0017,"dx":0.0017,"nx":28,"ny":28,"refTime":"2023-07-18T03:00:00:Z","depth":0,"parameterNumber":2,"parameterNumberName":"U-component_of_WINDS"},"data":[0,0,0,0,0,0,0,0,0,0,0,0,0,0,0,0,0,0,0,0,0,0,0,0,0,0,0,0,0,0,0,0,0,0,0,0,0,0,0,0,0,0,0,0,0,0,0,0,0,0,0,0,0,0,0,0,0,0,3.3919,3.3918,0,3.3868,3.3867,3.3867,3.3732,3.373,3.3727,3.3724,3.3673,3.3674,3.3675,0,0,0,0,0,0,0,0,0,0,0,0,0,3.3899,3.39,3.3919,3.3918,3.3918,3.3868,3.3867,3.3867,3.3733,3.3729,3.3726,3.3723,3.3672,3.3674,3.3675,0,0,0,0,0,0,0,0,0,0,0,0,0,3.3884,3.3901,3.3919,3.3845,3.3838,3.3868,3.3867,3.3866,3.3734,3.3729,3.3725,3.3721,3.3672,3.3674,3.3676,3.3774,0,0,3.3682,3.3683,0,0,0,0,0,0,0,0,3.3885,3.3885,3.3856,3.385,3.3842,3.3802,3.3841,3.3836,3.3735,3.3773,3.3724,3.3719,3.3719,3.3717,3.3717,3.3772,3.3769,3.3682,3.3683,3.3684,3.3684,0,0,0,0,0,0,0,3.3887,3.3887,3.3899,3.3856,3.3847,3.3814,3.3807,3.384,3.3771,3.377,3.376,3.3755,3.3715,3.3716,3.3715,3.3769,3.3682,3.3684,3.3685,3.3686,3.3898,3.3902,0,0,0,0,0,0,3.3898,3.3888,3.39,3.3897,3.3853,3.3818,3.381,3.3819,3.377,3.3759,3.3759,3.3749,3.3714,3.3713,3.3713,3.3821,3.3684,3.3686,3.3687,3.3893,3.3899,3.3903,0,0,0,0,0,0,3.3898,3.3901,3.3902,3.389,3.3888,3.3823,3.3834,3.3821,3.3821,3.3762,3.375,3.3773,3.3711,3.371,3.3759,3.3818,3.3687,3.3688,3.3888,3.3895,3.3901,3.4042,0,0,0,0,0,0,3.3898,3.3901,3.3938,3.3892,3.3889,3.395,3.3838,3.3823,3.3825,3.3812,3.3772,3.3761,3.3707,3.3757,3.3761,3.3818,3.369,3.3882,3.3891,3.3899,3.4031,3.4052,3.407,0,0,0,0,0,3.3898,3.3981,3.3941,3.3943,3.3934,3.3954,3.3952,3.3888,3.383,3.3866,3.3828,3.3762,3.3811,3.3763,3.3766,3.3825,3.3878,3.3889,3.3898,3.4023,3.4048,3.407,0,0,0,0,0,0,3.4037,3.3974,3.3928,3.3999,3.3983,3.3931,3.3975,3.3918,3.3918,3.3906,3.3827,3.3819,3.3878,3.3857,3.3804,3.3916,3.3834,3.3845,3.3927,3.3951,3.397,3.3973,3.3692,0,0,0,0,0,3.4076,3.4098,3.4041,3.4109,3.4103,3.4041,3.4047,3.3999,3.3979,3.3972,3.3937,3.3921,3.3931,3.3941,3.3948,3.4029,3.4016,3.4071,3.409,3.4106,3.4116,3.4154,3.4176,3.3936,3.3936,3.3936,0,0,3.4157,3.4124,3.4143,3.4136,3.4117,3.414,3.4036,3.4066,3.4081,3.3976,3.4019,3.3994,3.397,3.4034,3.4061,3.4018,3.418,3.4119,3.4132,3.4133,3.4166,3.4189,3.4209,3.3943,3.3942,3.3941,0,0,3.4314,3.4293,3.4345,3.4329,3.4302,3.426,3.4273,3.423,3.4208,3.425,3.4171,3.4189,3.4211,3.4195,3.4191,3.4341,3.4279,3.4346,3.4446,3.4484,3.4503,3.4519,3.457,3.4589,3.4357,3.4357,3.4357,0,3.4417,3.4449,3.438,3.4413,3.4411,3.4317,3.4368,3.4356,3.4334,3.4334,3.4287,3.431,3.4287,3.4345,3.4381,3.4382,3.4392,3.4349,3.4506,3.4522,3.4536,3.4583,3.4602,3.4365,3.4364,3.4363,3.4363,0,3.4575,3.4598,3.4644,3.4622,3.4626,3.4669,3.4606,3.4618,3.457,3.4532,3.4575,3.4545,3.4542,3.4553,3.4508,3.4604,3.4578,3.452,3.4435,3.4568,3.461,3.4628,3.4377,3.4374,3.4371,3.4369,0,0,3.4817,3.4757,3.4774,3.4762,3.4725,3.4741,3.478,3.4777,3.4787,3.4775,3.4803,3.4823,3.4768,3.4763,3.4715,3.4748,3.4865,3.4685,3.4683,3.4717,3.4966,3.5007,3.5029,3.4825,3.4828,3.4831,3.4966,0,3.4963,3.5023,3.4961,3.5034,3.5053,3.4963,3.4995,3.4976,3.4943,3.4953,3.4916,3.493,3.4858,3.4854,3.4884,3.4845,3.4913,3.4835,3.4848,3.485,3.4854,3.5052,3.5097,3.5226,3.4983,3.4986,3.4988,0,3.514,3.5134,3.5208,3.5164,3.517,3.52,3.5191,3.5204,3.5179,3.5152,3.5146,3.5087,3.512,3.504,3.5082,3.503,3.5032,3.5014,3.5018,3.5014,3.4925,3.5051,3.5266,3.5285,3.5014,3.5012,3.501,0,3.5305,3.5316,3.536,3.5354,3.5305,3.5327,3.5308,3.5279,3.5281,3.5274,3.5273,3.5271,3.5268,3.5267,3.5209,3.5156,3.5258,3.5173,3.5234,3.5236,3.5257,3.5256,3.5473,3.5265,3.5265,3.5264,3.5264,0,3.5471,3.5519,3.5433,3.5461,3.5511,3.544,3.5492,3.5463,3.5439,3.5458,3.5382,3.5402,3.5325,3.5336,3.5291,3.5331,3.5332,3.5309,3.5296,3.5314,3.5317,3.5312,3.53,3.5269,3.5268,3.5267,3.5266,0,3.5662,3.5607,3.5649,3.5599,3.5587,3.5627,3.5583,3.5605,3.5567,3.5592,3.5594,3.5533,3.5542,3.5484,3.5484,3.5453,3.5514,3.5488,3.5522,3.5512,3.5575,3.5569,3.5794,3.5818,3.5599,3.5601,3.5603,0,3.577,3.5805,3.5758,3.5765,3.5749,3.5762,3.5762,3.5694,3.5698,3.5671,3.5697,3.57,3.5698,3.5717,3.5672,3.5671,3.5641,3.572,3.564,3.5656,3.5637,3.5635,3.5636,3.5736,3.5738,3.5741,3.5743,0,3.5967,3.5937,3.5941,3.5935,3.5937,3.5929,3.5916,3.5927,3.5852,3.586,3.5868,3.5867,3.5865,3.5868,3.5857,3.5836,3.5777,3.5769,3.5782,3.5799,3.5816,3.5804,3.5564,3.5763,3.5761,3.5759,3.5758,3.5757,3.6117,3.6142,3.6112,3.6118,3.6101,3.609,3.6107,3.6071,3.6076,3.6068,3.6028,3.6043,3.6016,3.5995,3.598,3.599,3.5952,3.5972,3.5976,3.5982,3.5991,3.5817,3.5988,3.5988,3.5987,3.5986,3.5986,0,3.6306,3.6282,3.6288,3.6271,3.6276,3.622,3.6202,3.6209,3.6223,3.6203,3.6202,3.621,3.6212,3.6168,3.6164,3.6181,3.6153,3.6182,3.6178,3.6173,3.6027,3.6014,3.6204,3.6204,3.6204,3.6204,3.6204,3.6204,3.6405,3.6443,3.641,3.6439,3.6414,3.6427,3.6422,3.6411,3.6394,3.6406,3.6407,3.6378,3.6347,3.6341,3.6339,3.6326,3.6327,3.6364,3.6342,3.6205,3.6184,3.6164,3.6151,3.6366,3.6366,3.6486,3.6487,3.6488]},{"header":{"parameterUnit":"m.s-1","parameterCategory":1,"la1":30.2991,"la2":30.254,"lo1":-89.0895,"lo2":-89.0444,"dy":0.0017,"dx":0.0017,"nx":28,"ny":28,"refTime":"2023-07-18T03:00:00:Z","depth":0,"parameterNumber":3,"parameterNumberName":"V-component_of_WINDS"},"data":[0,0,0,0,0,0,0,0,0,0,0,0,0,0,0,0,0,0,0,0,0,0,0,0,0,0,0,0,0,0,0,0,0,0,0,0,0,0,0,0,0,0,0,0,0,0,0,0,0,0,0,0,0,0,0,0,0,0,3.5098,3.5099,0,3.517,3.5171,3.5171,3.5144,3.5142,3.5141,3.5139,3.5212,3.5215,3.5219,0,0,0,0,0,0,0,0,0,0,0,0,0,3.4936,3.4939,3.5098,3.5099,3.51,3.517,3.5171,3.5172,3.5144,3.5142,3.514,3.5138,3.5211,3.5215,3.5219,0,0,0,0,0,0,0,0,0,0,0,0,0,3.5007,3.494,3.5098,3.5095,3.5095,3.5169,3.5171,3.5172,3.5145,3.5142,3.514,3.5137,3.521,3.5215,3.522,3.5301,0,0,3.5236,3.5238,0,0,0,0,0,0,0,0,3.5003,3.5013,3.5094,3.5095,3.5096,3.5145,3.514,3.5215,3.5145,3.5126,3.5139,3.5136,3.5192,3.5198,3.5217,3.5305,3.5308,3.5236,3.5239,3.5242,3.5243,0,0,0,0,0,0,0,3.4998,3.5009,3.5126,3.5095,3.5096,3.5089,3.5096,3.5154,3.5172,3.5127,3.5126,3.5134,3.5192,3.5212,3.5219,3.5309,3.5236,3.5241,3.5244,3.5246,3.5464,3.5467,0,0,0,0,0,0,3.4993,3.5005,3.5124,3.5129,3.5042,3.5094,3.5102,3.5132,3.5171,3.5175,3.5136,3.5133,3.5205,3.5213,3.5221,3.5317,3.5242,3.5246,3.5249,3.5461,3.5465,3.5467,0,0,0,0,0,0,3.4989,3.5004,3.5121,3.5067,3.5081,3.5099,3.5133,3.5135,3.5155,3.5178,3.5181,3.5154,3.5203,3.5214,3.5281,3.5319,3.5249,3.5254,3.5458,3.5462,3.5466,3.5511,0,0,0,0,0,0,3.4985,3.5003,3.5035,3.5067,3.5084,3.5181,3.5135,3.5138,3.5164,3.516,3.5195,3.5199,3.5202,3.5273,3.5286,3.5325,3.5258,3.5455,3.546,3.5465,3.5506,3.5516,3.5525,0,0,0,0,0,3.4979,3.5045,3.5036,3.5051,3.5124,3.5183,3.5192,3.5194,3.5168,3.5199,3.5213,3.5198,3.5313,3.528,3.5295,3.5336,3.5452,3.5459,3.5464,3.5502,3.5514,3.5525,0,0,0,0,0,0,3.5017,3.5049,3.504,3.5119,3.5148,3.5178,3.5218,3.5208,3.5246,3.524,3.5241,3.5249,3.5318,3.5334,3.5297,3.5415,3.5379,3.5388,3.5403,3.5414,3.5423,3.5418,3.5262,0,0,0,0,0,3.5034,3.5079,3.5105,3.5172,3.5187,3.52,3.5226,3.5225,3.5255,3.5268,3.5287,3.5317,3.536,3.5388,3.5429,3.5509,3.5515,3.5544,3.5553,3.556,3.5568,3.5609,3.5621,3.5487,3.5487,3.5487,0,0,3.507,3.5094,3.5123,3.518,3.5203,3.5249,3.5211,3.5262,3.5296,3.5276,3.5339,3.5355,3.5388,3.5461,3.5494,3.5476,3.5606,3.5568,3.5574,3.5577,3.5616,3.5629,3.564,3.5491,3.549,3.549,0,0,3.516,3.5183,3.524,3.5263,3.5297,3.5305,3.5319,3.535,3.5359,3.5424,3.5409,3.5448,3.5523,3.5546,3.5568,3.5664,3.565,3.5677,3.5725,3.5765,3.5775,3.5785,3.5817,3.5829,3.5685,3.5685,3.5685,0,3.5201,3.527,3.527,3.5322,3.5346,3.533,3.5386,3.5409,3.5455,3.5472,3.5452,3.5543,3.5564,3.5641,3.5664,3.5683,3.5697,3.5673,3.5774,3.5783,3.5792,3.5823,3.5835,3.5688,3.5688,3.5687,3.5687,0,3.5317,3.5365,3.5407,3.5451,3.548,3.5534,3.5542,3.5572,3.5567,3.5577,3.5641,3.5666,3.5711,3.5729,3.5726,3.5805,3.5793,3.5773,3.5736,3.5808,3.5836,3.5848,3.5692,3.5691,3.569,3.5689,0,0,3.5433,3.5475,3.549,3.5509,3.5545,3.5582,3.5634,3.5677,3.5701,3.5733,3.5776,3.5838,3.5819,3.5844,3.5843,3.5878,3.595,3.5854,3.5855,3.5869,3.6036,3.605,3.6063,3.5941,3.5943,3.5945,3.6033,0,3.5524,3.5615,3.5616,3.57,3.5743,3.5727,3.5772,3.5798,3.5808,3.5845,3.5856,3.5899,3.5873,3.5887,3.5921,3.5934,3.5983,3.5928,3.5979,3.5981,3.597,3.6079,3.6094,3.6175,3.6044,3.6046,3.6047,0,3.5642,3.5677,3.5765,3.5792,3.581,3.5851,3.5889,3.5925,3.5954,3.5958,3.5985,3.5978,3.603,3.5991,3.6061,3.6024,3.6045,3.6054,3.6057,3.6061,3.6018,3.6084,3.6201,3.6213,3.6065,3.6064,3.6063,0,3.5716,3.5784,3.5845,3.5862,3.5896,3.5924,3.594,3.5966,3.5991,3.6024,3.604,3.6079,3.61,3.613,3.6133,3.6105,3.6203,3.6165,3.6207,3.6207,3.6228,3.6226,3.6349,3.6244,3.6244,3.6243,3.6243,0,3.5816,3.587,3.5878,3.5915,3.5975,3.5975,3.6033,3.6046,3.6069,3.6108,3.6096,3.6133,3.6135,3.6172,3.6175,3.6232,3.6242,3.6246,3.6246,3.6246,3.6246,3.626,3.6253,3.6247,3.6246,3.6245,3.6245,0,3.5908,3.5916,3.5981,3.6007,3.6014,3.6057,3.6078,3.6113,3.6121,3.617,3.6182,3.6194,3.6237,3.6243,3.6294,3.6296,3.6363,3.6358,3.6353,3.6352,3.6392,3.6388,3.6527,3.6544,3.643,3.6431,3.6432,0,3.5971,3.6012,3.6042,3.6067,3.6083,3.6124,3.6149,3.615,3.6176,3.621,3.6241,3.6282,3.6315,3.6384,3.6397,3.6435,3.643,3.6476,3.6436,3.6434,3.6428,3.6425,3.6429,3.6483,3.6485,3.6486,3.6487,0,3.6082,3.6083,3.6119,3.6157,3.6186,3.6216,3.6244,3.6264,3.6269,3.6299,3.6342,3.6367,3.6418,3.6458,3.6496,3.651,3.6499,3.6499,3.651,3.6511,3.6506,3.6507,3.6373,3.6496,3.6495,3.6494,3.6494,3.6493,3.616,3.6195,3.622,3.626,3.6281,3.6307,3.634,3.6352,3.6388,3.6428,3.6427,3.6474,3.6499,3.6548,3.6565,3.6601,3.6586,3.6603,3.6607,3.6611,3.6614,3.6501,3.6608,3.6608,3.6608,3.6607,3.6607,0,3.6268,3.6284,3.6321,3.6359,3.639,3.6376,3.6405,3.6432,3.6474,3.6498,3.6531,3.6579,3.6618,3.6634,3.6671,3.6697,3.6692,3.6707,3.6704,3.6707,3.6626,3.6612,3.6709,3.6709,3.6709,3.6709,3.6709,3.6709,3.6328,3.6385,3.6389,3.6455,3.647,3.6516,3.6533,3.6556,3.6575,3.663,3.6662,3.6672,3.6692,3.6731,3.6765,3.6769,3.6783,3.6799,3.68,3.6724,3.6713,3.6703,3.669,3.6802,3.6802,3.6878,3.6879,3.6879]}]]